| time (UTC) | temp F | wind direction | speed MPH | gust MPH | rain 1hr in | rain 24hr in | rain mn in | humidity % | barometer mb |
| 20260509120018 | 49 | 70 | 1.0 | 3.0 | 0.05 | 0.17 | 0.17 | 1 | 1009.6 |
| 20260509114516 | 49 | 70 | 0.0 | 2.0 | 0.05 | 0.16 | 0.16 | 1 | 1009.6 |
| 20260509113011 | 49 | 70 | 1.0 | 4.0 | 0.05 | 0.14 | 0.14 | 1 | 1009.6 |
| 20260509111506 | 49 | 74 | 0.0 | 3.0 | 0.08 | 0.13 | 0.13 | 1 | 1009.6 |
| 20260509110002 | 49 | 74 | 1.0 | 4.0 | 0.07 | 0.12 | 0.12 | 1 | 1009.5 |
| 20260509104603 | 48 | 74 | 0.0 | 3.0 | 0.07 | 0.11 | 0.11 | 1 | 1009.4 |
| 20260509103104 | 48 | 74 | 1.0 | 4.0 | 0.05 | 0.09 | 0.09 | 1 | 1009.6 |
| 20260509101549 | 48 | 76 | 0.0 | 2.0 | 0.01 | 0.05 | 0.05 | 1 | 1009.5 |
| 20260509100044 | 48 | 78 | 2.0 | 4.0 | 0.01 | 0.05 | 0.05 | 1 | 1009.3 |
| 20260509094550 | 48 | 78 | 1.0 | 3.0 | 0.00 | 0.04 | 0.04 | 1 | 1009.4 |
| 20260509093038 | 48 | 78 | 0.0 | 2.0 | 0.00 | 0.04 | 0.04 | 1 | 1009.4 |
| 20260509091540 | 48 | 78 | 2.0 | 5.0 | 0.00 | 0.04 | 0.04 | 1 | 1009.3 |
| 20260509090036 | 47 | 88 | 2.0 | 4.0 | 0.00 | 0.04 | 0.04 | 1 | 1009.4 |
| 20260509084525 | 47 | 93 | 0.0 | 2.0 | 0.01 | 0.04 | 0.04 | 1 | 1009.4 |
| 20260509083017 | 47 | 93 | 0.0 | 2.0 | 0.01 | 0.04 | 0.04 | 1 | 1009.7 |
| 20260509081512 | 47 | 93 | 1.0 | 4.0 | 0.01 | 0.04 | 0.04 | 1 | 1009.8 |
| 20260509080008 | 46 | 94 | 0.0 | 2.0 | 0.01 | 0.04 | 0.04 | 1 | 1010.1 |
| 20260509074504 | 46 | 94 | 0.0 | 2.0 | 0.00 | 0.03 | 0.03 | 1 | 1010.2 |
| 20260509073109 | 46 | 94 | 0.0 | 1.0 | 0.01 | 0.03 | 0.03 | 1 | 1010.1 |
| 20260509071559 | 46 | 94 | 1.0 | 3.0 | 0.02 | 0.03 | 0.03 | 1 | 1009.9 |
| 20260509070056 | 45 | 94 | 0.0 | 1.0 | 0.03 | 0.03 | 0.03 | 1 | 1010.0 |
| 20260509064547 | 45 | 94 | 0.0 | 1.0 | 0.03 | 0.03 | 0.03 | 1 | 1010.0 |
| 20260509063055 | 45 | 94 | 0.0 | 2.0 | 0.02 | 0.02 | 0.02 | 1 | 1010.2 |
| 20260509061539 | 45 | 94 | 0.0 | 0.0 | 0.01 | 0.01 | 0.01 | 1 | 1010.5 |
| 20260509060039 | 46 | 94 | 0.0 | 1.0 | 0.00 | 0.00 | 0.00 | 1 | 1010.6 |
| 20260509054534 | 46 | 94 | 0.0 | 1.0 | 0.00 | 0.00 | 0.00 | 1 | 1010.7 |
| 20260509053037 | 46 | 94 | 0.0 | 1.0 | 0.00 | 0.00 | 0.00 | 1 | 1010.7 |
| 20260509051521 | 46 | 94 | 0.0 | 1.0 | 0.00 | 0.00 | 0.00 | 1 | 1010.7 |
| 20260509050016 | 46 | 94 | 0.0 | 2.0 | 0.00 | 0.00 | 0.00 | 1 | 1010.6 |
| 20260509044512 | 46 | 94 | 1.0 | 6.0 | 0.00 | 0.00 | 0.00 | 1 | 1010.7 |
| 20260509043012 | 46 | 94 | 2.0 | 8.0 | 0.00 | 0.00 | 0.00 | 1 | 1010.8 |
| 20260509041507 | 46 | 96 | 3.0 | 7.0 | 0.00 | 0.00 | 0.00 | 1 | 1010.9 |
| 20260509040109 | 45 | 126 | 1.0 | 2.0 | 0.00 | 0.00 | 0.00 | 1 | 1010.9 |
| 20260509034555 | 45 | 126 | 0.0 | 2.0 | 0.00 | 0.00 | 0.00 | 1 | 1011.0 |
| 20260509033110 | 44 | 126 | 0.0 | 2.0 | 0.00 | 0.00 | 0.00 | 1 | 1010.9 |
| 20260509031548 | 44 | 126 | 0.0 | 3.0 | 0.00 | 0.00 | 0.00 | 1 | 1010.8 |
| 20260509030042 | 45 | 126 | 1.0 | 2.0 | 0.00 | 0.00 | 0.00 | 1 | 1010.9 |
| 20260509024540 | 46 | 126 | 1.0 | 2.0 | 0.00 | 0.00 | 0.00 | 1 | 1011.0 |
| 20260509023033 | 47 | 126 | 1.0 | 2.0 | 0.00 | 0.00 | 0.00 | 1 | 1010.9 |
| 20260509021529 | 47 | 126 | 0.0 | 2.0 | 0.00 | 0.00 | 0.00 | 20 | 1010.8 |
| 20260509020024 | 48 | 126 | 0.0 | 1.0 | 0.00 | 0.00 | 0.00 | 29 | 1010.9 |
| 20260509014526 | 48 | 126 | 1.0 | 3.0 | 0.00 | 0.00 | 0.00 | 39 | 1010.8 |
| 20260509013015 | 49 | 126 | 0.0 | 3.0 | 0.00 | 0.00 | 0.00 | 46 | 1010.6 |
| 20260509011512 | 50 | 129 | 1.0 | 3.0 | 0.00 | 0.00 | 0.00 | 48 | 1010.5 |
| 20260509010006 | 50 | 125 | 1.0 | 2.0 | 0.00 | 0.00 | 0.00 | 50 | 1010.4 |
| 20260509004502 | 51 | 129 | 1.0 | 2.0 | 0.00 | 0.00 | 0.00 | 50 | 1010.1 |
| 20260509003102 | 51 | 128 | 0.0 | 3.0 | 0.00 | 0.00 | 0.00 | 51 | 1010.0 |
| 20260509001554 | 52 | 127 | 1.0 | 2.0 | 0.00 | 0.00 | 0.00 | 51 | 1009.9 |
| 20260509000049 | 54 | 128 | 0.0 | 2.0 | 0.00 | 0.00 | 0.00 | 50 | 1009.7 |
| 20260508234545 | 55 | 129 | 0.0 | 3.0 | 0.00 | 0.00 | 0.00 | 48 | 1009.6 |
| 20260508233042 | 55 | 133 | 1.0 | 3.0 | 0.00 | 0.00 | 0.00 | 47 | 1009.4 |
| 20260508231536 | 55 | 109 | 0.0 | 3.0 | 0.00 | 0.00 | 0.00 | 45 | 1009.3 |
| 20260508230031 | 56 | 51 | 0.0 | 4.0 | 0.00 | 0.00 | 0.00 | 43 | 1009.3 |
| 20260508224527 | 56 | 70 | 4.0 | 8.0 | 0.00 | 0.00 | 0.00 | 43 | 1009.3 |
| 20260508223023 | 57 | 86 | 3.0 | 7.0 | 0.00 | 0.00 | 0.00 | 43 | 1009.3 |
| 20260508221518 | 57 | 17 | 2.0 | 8.0 | 0.00 | 0.00 | 0.00 | 42 | 1009.2 |
| 20260508220013 | 58 | 360 | 1.0 | 9.0 | 0.00 | 0.00 | 0.00 | 40 | 1009.3 |
| 20260508214522 | 58 | 16 | 3.0 | 9.0 | 0.00 | 0.00 | 0.00 | 40 | 1009.3 |
| 20260508213005 | 58 | 360 | 1.0 | 9.0 | 0.00 | 0.00 | 0.00 | 41 | 1009.4 |
| 20260508211603 | 59 | 311 | 4.0 | 10.0 | 0.00 | 0.00 | 0.00 | 39 | 1009.4 |
| 20260508210056 | 59 | 292 | 3.0 | 9.0 | 0.00 | 0.00 | 0.00 | 40 | 1009.6 |
| 20260508204553 | 58 | 319 | 8.0 | 14.0 | 0.00 | 0.00 | 0.00 | 40 | 1009.8 |
| 20260508203048 | 58 | 272 | 2.0 | 10.0 | 0.00 | 0.00 | 0.00 | 40 | 1010.0 |
| 20260508201543 | 61 | 360 | 4.0 | 10.0 | 0.00 | 0.00 | 0.00 | 38 | 1010.1 |
| 20260508200039 | 60 | 265 | 3.0 | 10.0 | 0.00 | 0.00 | 0.00 | 39 | 1010.1 |
| 20260508194534 | 58 | 310 | 4.0 | 12.0 | 0.00 | 0.00 | 0.00 | 40 | 1010.4 |
| 20260508193030 | 59 | 338 | 5.0 | 12.0 | 0.00 | 0.00 | 0.00 | 40 | 1010.5 |
| 20260508191529 | 58 | 9 | 4.0 | 15.0 | 0.00 | 0.00 | 0.00 | 43 | 1010.8 |
| 20260508190020 | 57 | 11 | 3.0 | 14.0 | 0.00 | 0.00 | 0.00 | 44 | 1011.0 |
| 20260508184521 | 55 | 28 | 3.0 | 9.0 | 0.00 | 0.00 | 0.00 | 46 | 1011.2 |
| 20260508183012 | 54 | 111 | 5.0 | 12.0 | 0.00 | 0.00 | 0.00 | 47 | 1011.4 |
| 20260508181507 | 55 | 294 | 7.0 | 12.0 | 0.00 | 0.00 | 0.00 | 46 | 1011.5 |
| 20260508180003 | 55 | 288 | 3.0 | 7.0 | 0.00 | 0.00 | 0.00 | 44 | 1011.6 |
| 20260508174600 | 55 | 278 | 3.0 | 8.0 | 0.00 | 0.00 | 0.00 | 43 | 1011.7 |
| 20260508173053 | 54 | 275 | 2.0 | 8.0 | 0.00 | 0.00 | 0.00 | 33 | 1011.9 |
| 20260508171549 | 53 | 267 | 5.0 | 10.0 | 0.00 | 0.00 | 0.00 | 21 | 1012.0 |
| 20260508170044 | 51 | 329 | 2.0 | 6.0 | 0.00 | 0.00 | 0.00 | 1 | 1012.1 |
| 20260508164540 | 50 | 315 | 2.0 | 5.0 | 0.00 | 0.00 | 0.00 | 1 | 1012.2 |
| 20260508163048 | 46 | 321 | 3.0 | 9.0 | 0.00 | 0.00 | 0.00 | 1 | 1012.2 |
| 20260508161546 | 45 | 25 | 5.0 | 16.0 | 0.00 | 0.00 | 0.00 | 1 | 1012.3 |
| 20260508160026 | 46 | 345 | 4.0 | 11.0 | 0.00 | 0.00 | 0.00 | 1 | 1012.3 |
| 20260508154526 | 46 | 348 | 2.0 | 9.0 | 0.00 | 0.00 | 0.00 | 1 | 1012.0 |
| 20260508153032 | 46 | 17 | 4.0 | 9.0 | 0.00 | 0.00 | 0.00 | 1 | 1011.7 |
| 20260508151514 | 45 | 326 | 2.0 | 5.0 | 0.00 | 0.00 | 0.00 | 1 | 1011.7 |
| 20260508150010 | 44 | 342 | 3.0 | 6.0 | 0.00 | 0.00 | 0.00 | 1 | 1011.7 |
| 20260508144508 | 44 | 302 | 1.0 | 6.0 | 0.00 | 0.00 | 0.00 | 1 | 1011.9 |
| 20260508143118 | 43 | 257 | 1.0 | 4.0 | 0.00 | 0.00 | 0.00 | 1 | 1011.8 |
| 20260508141604 | 44 | 341 | 1.0 | 4.0 | 0.00 | 0.00 | 0.00 | 1 | 1011.8 |
| 20260508140105 | 44 | 346 | 2.0 | 6.0 | 0.00 | 0.00 | 0.00 | 1 | 1011.8 |
| 20260508134547 | 44 | 327 | 2.0 | 5.0 | 0.00 | 0.00 | 0.00 | 1 | 1011.6 |
| 20260508133042 | 44 | 266 | 1.0 | 4.0 | 0.00 | 0.00 | 0.00 | 1 | 1011.2 |
| 20260508131538 | 44 | 235 | 0.0 | 3.0 | 0.00 | 0.00 | 0.00 | 1 | 1011.1 |
| 20260508130033 | 44 | 252 | 1.0 | 3.0 | 0.00 | 0.00 | 0.00 | 1 | 1011.1 |
| 20260508124532 | 44 | 252 | 1.0 | 3.0 | 0.00 | 0.00 | 0.00 | 1 | 1010.9 |
| 20260508123027 | 44 | 252 | 0.0 | 3.0 | 0.00 | 0.00 | 0.00 | 1 | 1011.0 |
| 20260508121520 | 43 | 252 | 0.0 | 1.0 | 0.00 | 0.00 | 0.00 | 1 | 1011.0 |